Hourly Data Report for September 24, 2017

All times are specified in Local Standard Time (LST). Add 1 hour to adjust for Daylight Saving Time where and when it is observed.

COMOX A
BRITISH COLUMBIA

49°43'00.000" N
124°54'00.000" W
25.60 m
1021830
71893
YQQ

Download Data

Hourly Data (September 2017)
Hourly Data Report for September 24, 2017
Temp Definition
°C
Dew Point Temp Definition
°C
Rel Hum Definition
%
Wind Dir Definition
10's deg

Wind Spd Definition
km/h
Visibility Definition
km
Stn Press Definition
kPa
Hmdx Definition


Wind Chill Definition


Weather Definition


TIME
00:00 14.5 9.6 72 32 4 32.2 101.75     Cloudy
01:00 14.8 9.2 69 33 4 32.2 101.75     Cloudy
02:00 14.7 9.7 72   0 32.2 101.75     Cloudy
03:00 14.3 9.9 75 32 4 32.2 101.75     Cloudy
04:00 14.1 10.6 79   0 32.2 101.75     Cloudy
05:00 13.8 10.3 79   0 32.2 101.73     Mostly Cloudy
06:00 12.7 10.2 85 20 4 32.2 101.73     Mostly Cloudy
07:00 13.2 10.9 86   0 32.2 101.73     Mostly Cloudy
08:00 14.8 11.8 82   0 32.2 101.76     Mostly Cloudy
09:00 16.2 11.7 75 4 6 32.2 101.77     Mostly Cloudy
10:00 15.9 12.4 80 9 7 32.2 101.75     Mostly Cloudy
11:00 16.3 12.3 77 13 9 32.2 101.75     Mainly Clear
12:00 16.9 11.4 70 13 15 32.2 101.72     Mostly Cloudy
13:00 17.6 11.1 66 14 9 32.2 101.69     Mostly Cloudy
14:00 17.2 12.0 71 10 9 32.2 101.65     Mostly Cloudy
15:00 17.5 10.1 62 17 9 32.2 101.62     Mostly Cloudy
16:00 16.8 9.8 63 14 4 32.2 101.58     Mostly Cloudy
17:00 16.4 10.4 68 18 9 32.2 101.55     Mostly Cloudy
18:00 15.6 11.0 74 18 6 32.2 101.54     Mostly Cloudy
19:00 15.3 11.0 76   0 32.2 101.53     Cloudy
20:00 15.0 11.0 77 19 4 32.2 101.52     Cloudy
21:00 14.6 11.3 81 10 6 32.2 101.49     Rain Showers
22:00 14.6 11.3 81   0 32.2 101.50     Rain Showers
23:00 14.4 11.9 85   0 32.2 101.49     Rain Showers

Notes on Data Quality.

Legend

  • E = Estimated
  • M = Missing
  • NA = Not Available
  • ‡ = Partner data that is not subject to review by the National Climate Archives
Date modified: